Regional Weather Roundup
Issued by NWS Cleveland, OH

Home | Current Version | Previous Version | Graphics & Text | Print | Product List | Glossary On
Versions: 1 2 3 4 5 6 7 8 9 10 11 12 13 14 15 16 17 18 19 20 21 22 23 24 25 26 27 28 29 30 31 32 33 34 35 36 37 38 39 40 41 42 43 44 45 46 47 48 49 50
000
ASUS41 KCLE 220102
RWRCLE
OHIO REGIONAL WEATHER ROUNDUP
NATIONAL WEATHER SERVICE CLEVELAND, OH
900 PM EDT TUE OCT 21 2014

NOTE: "FAIR" INDICATES FEW OR NO CLOUDS BELOW 12,000 FEET WITH NO
SIGNIFICANT WEATHER AND/OR OBSTRUCTIONS TO VISIBILITY.

OHZ001>008-015>018-024>027-034-035-043-044-220200-
   NORTHWEST OHIO

CITY           SKY/WX    TMP DP  RH WIND       PRES   REMARKS
DEFIANCE       CLOUDY    46  36  68 N7        30.20R
FINDLAY        CLOUDY    46  38  73 N8        30.16R
TOLEDO EXPRESS CLOUDY    45  37  73 N13       30.18R
TOLEDO EXEC    CLOUDY    46  36  68 N13       30.18R
LIMA           CLOUDY    46  37  71 N10       30.17R
$$

OHZ009>014-019>023-028>033-038-089-220200-
   NORTHEAST OHIO

CITY           SKY/WX    TMP DP  RH WIND       PRES   REMARKS
CLE-HOPKINS    LGT RAIN  47  44  90 N10       30.10R
CLE-LAKEFRONT  CLOUDY    50  45  83 N20G29    30.07R
CUY CO. ARPT   LGT RAIN  48  48 100 N12       30.07R FOG
LORAIN-ELYRIA  LGT RAIN  46  44  93 N16G23    30.10R FOG
ASHTABULA      LGT RAIN  47  45  93 N6        30.05R FOG
AKRON-CANTON   LGT RAIN  47  44  90 N8G16     30.05R FOG
WOOSTER        LGT RAIN  46  43  89 NW13      30.08R FOG
MANSFIELD      CLOUDY    43  42  97 NW16      30.10R FOG
YOUNGSTOWN     CLOUDY    48  45  89 N13       30.02R
$$

OHZ042-051>053-060>062-070>072-077>081-220200-
  SOUTHWEST OHIO

CITY           SKY/WX    TMP DP  RH WIND       PRES   REMARKS
CINC-COVINGTON MOCLDY    50  40  68 N8        30.13R
CINC-LUNKEN    MOCLDY    47  43  86 CALM      30.15R
HAMILTON       CLOUDY    49  44  83 N5        30.16R
DAYTON         CLOUDY    47  41  80 N14       30.16R
WRIGHT-PAT AFB CLOUDY    47  40  75 N8        30.15R
DAYTON GENERAL CLOUDY    47  41  80 N14G21    30.14R
WILMINGTON     CLOUDY    47  40  76 N10       30.13R
$$

OHZ036-037-039>041-045>050-054>059-063>069-073>076-082>088-220200-
  CENTRAL AND SOUTHEAST OHIO

CITY           SKY/WX    TMP DP  RH WIND       PRES   REMARKS
COLUMBUS       CLOUDY    46  40  79 NW14      30.12R
OSU AIRPORT    CLOUDY    45  40  82 N12       30.13R
BOLTON FIELD   CLOUDY    46  40  81 NW12G18   30.14R
RICKENBACK AFB NOT AVBL
NEWARK         CLOUDY    47  39  74 NW7       30.10R
MARION         CLOUDY    45  39  79 N14       30.14R
LANCASTER      CLOUDY    47  40  76 NW7       30.12R
ZANESVILLE     CLOUDY    46  40  79 NW9       30.08R
NEW PHILLY     CLOUDY    47  43  86 NW10      30.06R
$$



USA.gov is the U.S. government's official web portal to all federal, state and local government web resources and services.